Wind_Speed
13 14 15 19 21 22 21 20 20 19 21 22 20 21 17 15 16 14 13 18 18 22 20 13 11 11 11 13 13 11 12 14 16 17 19 21 23 25 24 22 22 22 22 20 21 22 22 22 22 23 21 22 21 14 12 13 10 9 8 9 10 9 6 4 5 8 10 11 11 13 15 16 19 21 19 18 16 16 17 18 20 22 23 22 21 22
11 15 16 18 19 18 17 17 18 17 20 22 22 23 19 14 16 15 10 17 18 19 16 12 12 11 10 14 18 20 16 13 15 16 19 21 22 22 20 21 23 22 21 22 23 23 23 22 24 23 19 20 20 17 17 16 13 12 11 11 11 10 8 7 7 7 10 11 12 14 16 18 20 20 17 15 15 16 17 17 20 25 25 23 22 22
14 16 16 15 13 14 14 16 19 18 17 18 18 20 19 16 16 12 5 16 16 13 12 14 15 11 10 13 17 21 19 16 16 17 18 20 20 20 20 20 21 20 21 24 24 22 20 21 23 21 20 22 22 20 21 19 17 15 14 14 13 11 10 10 8 7 9 13 15 16 16 18 20 19 16 15 15 17 16 16 20 25 25 23 22 22
18 10 7 12 13 14 16 16 20 21 19 16 11 11 14 16 16 11 5 8 8 8 11 17 17 13 12 13 16 20 19 17 19 20 20 22 21 22 23 21 20 21 25 27 26 23 22 21 20 18 20 21 21 21 22 22 20 18 18 17 14 13 12 10 9 8 8 11 14 16 17 17 18 18 17 17 18 18 18 18 20 23 22 21 21 20
22 9 3 8 11 15 19 19 21 22 19 14 7 5 8 13 14 14 14 11 11 11 11 17 17 14 11 11 13 19 18 15 18 20 19 18 20 23 25 23 23 25 27 27 26 24 23 21 19 19 20 20 20 21 23 23 22 21 21 18 15 17 16 12 9 9 8 9 11 13 14 15 15 18 20 19 20 20 19 18 20 21 20 20 18 18
23 18 12 12 12 14 19 20 20 18 18 16 11 8 8 12 14 16 17 15 15 15 11 13 11 10 10 11 11 12 14 17 20 23 21 15 16 21 23 23 24 26 26 26 25 23 20 19 19 19 20 20 20 22 24 23 21 23 23 18 16 19 19 13 7 7 7 8 9 9 11 13 14 17 20 20 19 19 20 19 20 21 21 20 17 16
20 19 16 16 16 17 19 19 14 9 13 18 19 16 11 11 13 15 17 17 18 16 12 11 9 7 9 10 10 11 13 18 19 22 26 23 19 20 20 21 23 24 25 25 24 22 20 19 19 20 21 21 22 22 22 19 19 23 23 19 18 18 18 12 5 5 7 8 9 8 8 11 13 16 18 19 19 20 21 22 22 22 22 20 18 17
20 16 15 16 17 17 18 19 15 10 12 16 18 18 15 14 13 13 16 20 20 18 18 18 13 10 10 9 11 13 15 18 16 16 21 23 23 19 18 20 21 21 22 23 21 19 19 20 20 21 22 21 19 20 19 17 17 21 22 20 20 18 16 11 5 3 5 7 8 8 8 8 10 14 17 18 19 21 24 25 24 23 22 21 20 19
17 15 16 16 16 16 14 15 15 13 14 16 15 14 16 16 15 16 18 18 14 14 18 20 15 10 10 12 13 15 16 16 14 10 5 16 19 15 13 16 17 16 16 17 14 12 16 19 18 19 20 17 17 21 21 16 15 18 18 18 19 17 13 10 8 6 6 7 7 7 7 8 8 13 16 18 20 23 25 26 25 23 22 21 20 19
15 14 15 15 16 15 14 13 12 12 15 16 14 12 15 16 14 13 13 10 9 10 11 15 16 10 9 14 16 14 14 14 12 8 6 15 16 12 10 10 12 12 12 8 5 8 13 16 16 16 16 15 18 22 20 15 14 15 15 15 16 15 13 13 13 10 9 9 6 5 7 8 8 11 15 18 23 26 26 25 25 23 23 22 20 19
18 13 13 16 14 13 15 15 12 14 16 15 14 12 12 14 12 8 8 8 9 7 7 10 12 10 6 8 9 6 7 9 8 7 6 9 12 12 10 11 11 11 9 6 5 8 11 13 13 12 12 15 18 18 16 17 18 17 16 16 16 15 16 18 16 11 11 9 5 5 8 9 9 10 13 19 24 27 27 26 25 25 24 22 20 20
19 14 13 17 15 9 12 15 13 14 14 12 14 13 9 8 6 4 6 9 5 5 11 13 11 13 7 2 1 4 7 8 10 9 8 10 9 8 8 10 10 8 7 8 10 12 13 13 12 10 10 13 16 16 14 16 19 21 20 20 19 17 20 22 17 12 13 11 7 7 9 10 11 10 12 18 23 25 27 27 26 26 25 23 22 22
19 17 12 15 18 12 9 13 14 14 12 10 12 13 8 3 1 2 3 4 5 10 19 17 12 11 3 8 3 6 6 6 11 13 10 10 12 11 10 9 10 10 10 12 13 13 14 14 15 15 13 14 18 20 19 17 17 21 24 24 23 21 23 23 18 15 15 14 12 11 10 10 12 12 13 18 23 25 26 27 27 27 26 24 23 22
18 19 16 14 16 16 13 13 15 14 14 15 16 14 11 3 1 2 3 4 7 14 18 15 8 5 9 10 4 2 3 3 6 9 9 11 14 15 14 13 13 14 15 15 14 15 16 15 18 19 19 21 23 25 24 21 18 19 22 25 25 23 25 24 19 17 18 17 17 15 13 11 12 15 16 20 26 28 29 28 28 27 26 25 23 21
11 15 20 18 16 18 19 18 17 17 16 19 21 16 13 10 6 3 3 4 3 3 8 8 3 3 7 6 2 1 2 3 4 6 9 12 14 15 17 17 18 19 19 16 16 17 18 17 19 22 23 24 24 25 25 22 20 20 22 25 24 22 25 26 22 21 21 19 19 18 15 13 14 17 19 22 28 31 32 31 30 28 26 26 24 20
10 12 16 16 15 19 22 17 15 18 16 13 19 21 16 15 14 12 11 11 5 2 0 2 2 1 5 7 3 2 4 6 8 10 12 14 15 16 17 18 20 21 19 16 16 18 18 16 17 21 22 20 18 20 21 19 19 21 23 25 23 21 25 28 27 26 23 21 20 19 16 14 15 17 21 25 30 32 32 31 30 28 27 26 23 20
10 11 13 13 12 14 18 14 10 16 14 6 9 17 19 15 15 16 15 16 11 1 2 4 7 8 8 8 5 2 5 7 8 10 12 13 15 15 15 16 18 19 18 17 18 18 17 16 16 17 17 13 12 15 17 16 16 17 18 23 23 23 27 32 32 29 25 21 20 18 16 15 15 18 22 27 30 32 31 30 29 27 27 26 22 20
10 11 13 15 14 11 16 14 7 12 17 13 10 9 12 14 16 17 9 6 5 2 2 7 12 13 7 6 6 5 7 7 6 9 12 12 12 12 11 13 15 15 14 15 17 17 14 12 13 15 14 11 11 14 15 15 17 16 17 22 25 26 30 34 33 28 23 20 19 17 16 16 17 20 22 25 28 30 28 28 27 27 26 24 21 21
10 11 8 11 15 11 16 18 11 11 15 17 14 9 6 7 10 13 7 0 2 1 2 6 15 10 5 6 7 6 6 6 6 10 12 11 11 11 10 11 11 10 9 10 13 15 12 10 11 14 15 13 14 16 16 16 18 17 18 23 27 28 32 35 31 24 21 19 18 17 18 18 18 19 21 23 26 27 26 26 27 27 26 22 20 21
12 11 4 8 13 11 14 19 15 12 12 13 16 16 14 10 9 11 9 4 2 3 2 4 9 5 3 6 4 4 5 6 8 11 13 12 12 12 11 10 11 11 9 9 10 11 11 12 13 13 14 14 14 16 17 18 18 18 19 23 27 31 33 33 28 24 21 19 18 19 19 17 17 19 21 22 25 26 25 27 26 25 25 23 21 21
10 13 7 8 13 10 9 17 15 11 8 8 12 16 16 16 15 12 11 11 7 2 2 2 3 2 4 6 4 4 6 8 10 11 12 12 12 13 12 11 11 11 11 10 10 9 11 14 13 12 12 14 14 13 13 14 16 17 19 21 25 31 33 31 29 25 22 21 21 20 19 16 16 19 21 23 25 26 27 27 25 24 25 23 22 21
6 9 5 5 10 5 4 9 10 9 5 2 2 5 6 7 7 4 4 6 4 3 3 3 2 4 8 7 6 6 7 8 10 10 11 12 10 9 10 11 10 10 10 11 11 11 13 13 10 8 8 11 12 11 10 10 11 13 15 17 20 23 24 24 25 22 20 19 18 18 16 15 16 19 22 25 27 27 28 27 25 25 25 23 22 20
5 6 3 4 7 7 6 4 2 3 5 3 2 3 2 3 4 3 2 2 5 6 6 7 3 5 9 6 5 6 7 9 10 12 12 10 6 6 9 10 10 10 11 11 12 13 14 14 13 11 8 7 6 6 7 6 6 8 10 13 15 16 13 9 8 9 12 13 13 14 13 13 16 20 23 26 28 29 29 28 26 25 24 22 22 21
3 2 3 4 6 8 13 10 2 3 5 3 6 7 5 5 5 4 3 2 5 5 5 7 3 3 7 4 5 7 9 10 12 14 13 9 6 6 7 6 8 9 9 10 10 10 12 13 14 14 13 12 10 7 6 3 3 6 8 10 13 14 9 5 6 4 9 10 9 11 14 13 14 20 25 27 29 31 31 30 28 25 24 23 22 21
4 1 2 2 4 5 9 9 6 5 4 4 9 9 8 5 4 2 2 1 4 5 6 7 3 5 7 6 9 8 9 9 9 10 10 7 6 7 7 5 6 8 7 8 8 8 9 11 12 14 14 14 12 10 8 5 2 6 7 9 13 14 10 10 12 10 7 7 8 10 15 16 14 19 26 29 31 33 32 31 30 27 25 25 23 21
7 4 3 2 1 1 1 3 5 5 5 4 5 7 7 8 8 6 4 4 4 4 5 7 10 12 10 10 11 10 10 9 6 5 6 8 8 7 5 5 5 5 5 6 7 6 6 7 8 9 10 10 10 10 8 6 6 7 9 10 13 14 12 12 15 16 14 11 9 9 14 18 16 19 27 32 34 34 33 32 31 28 26 26 23 21
6 5 7 7 4 3 3 4 4 4 7 9 5 3 4 5 5 4 3 3 5 6 5 7 14 17 12 11 13 11 11 10 7 5 5 7 8 7 5 3 3 4 5 6 8 8 7 7 8 8 9 10 10 10 9 7 7 9 11 13 14 14 14 15 17 19 19 17 14 11 13 18 20 20 28 35 36 34 33 33 31 28 27 26 24 21
4 4 5 6 3 2 4 4 5 4 4 7 5 2 1 3 4 2 0 3 6 6 5 7 14 16 14 15 15 13 13 11 8 7 6 7 9 9 8 7 7 7 7 8 9 9 8 8 8 9 10 11 12 12 10 8 7 9 12 15 17 17 16 17 18 19 20 20 18 15 13 18 22 23 29 36 37 35 35 34 31 29 28 27 24 22
5 4 4 4 2 1 3 3 3 1 4 2 3 2 3 1 2 1 5 7 5 5 7 13 17 16 16 16 14 13 12 10 7 5 5 5 9 11 10 9 9 9 9 9 9 9 8 7 7 8 9 11 12 13 13 12 9 8 11 14 17 19 19 18 18 19 21 22 22 20 18 20 24 26 30 36 38 37 37 35 32 30 30 28 25 23
4 5 5 5 4 2 4 4 4 6 7 9 10 9 6 4 3 4 8 9 7 7 12 19 21 18 16 15 14 13 11 8 6 5 5 6 9 11 11 10 9 9 9 9 8 8 8 8 8 8 10 12 13 14 14 14 12 10 10 13 15 18 19 18 17 20 23 25 26 26 24 24 27 29 32 37 39 37 36 35 33 32 31 29 26 24
4 6 5 4 5 4 5 5 5 6 5 8 13 12 7 5 6 7 8 9 10 11 11 15 18 17 14 13 12 11 9 8 7 4 5 8 9 9 9 8 7 9 9 8 8 8 8 8 8 9 11 12 13 14 15 15 14 13 12 12 13 16 19 19 20 22 25 27 28 28 27 28 31 33 35 37 39 37 36 35 35 34 32 29 27 26
4 5 4 4 4 4 5 6 6 5 4 5 9 11 7 2 4 5 5 6 7 9 9 11 12 9 7 8 9 9 9 8 6 4 4 6 7 6 5 6 8 9 9 8 8 8 8 8 9 10 11 12 14 14 15 15 15 14 13 12 12 12 16 20 22 23 25 27 28 29 29 30 33 36 38 40 39 38 37 38 37 35 32 30 29 30
2 5 4 3 3 5 5 6 6 5 3 3 8 10 6 3 3 2 2 4 4 6 8 10 8 5 4 5 5 6 7 7 6 5 5 5 5 6 6 7 9 9 8 9 9 9 9 9 10 11 11 11 13 14 14 14 16 16 14 13 13 11 13 19 23 23 25 29 31 30 30 31 33 37 39 43 43 40 38 39 38 36 34 33 33 34
1 3 3 2 3 4 3 3 4 3 2 4 4 3 2 1 1 1 2 4 5 6 6 6 5 3 3 3 3 4 6 7 7 6 6 5 5 6 7 7 7 8 8 8 8 10 12 11 12 13 12 12 13 13 14 14 15 16 15 15 14 12 12 15 21 23 24 28 32 34 33 32 34 37 39 42 43 41 40 41 41 38 36 36 36 34
2 2 3 3 2 2 2 1 2 3 4 6 5 3 3 3 1 2 5 7 7 6 5 4 3 2 2 3 3 4 6 8 8 6 6 6 6 7 7 6 6 7 8 8 8 10 13 13 14 14 13 13 14 14 14 13 14 16 16 16 14 11 12 13 14 17 22 27 30 33 33 32 33 36 39 41 40 39 40 42 43 41 38 38 38 35
5 4 4 4 2 1 2 2 4 7 8 7 6 6 5 3 1 3 7 8 7 5 5 5 5 4 4 5 5 6 8 8 5 5 6 7 8 9 8 7 6 6 7 9 9 11 12 13 14 14 13 14 14 14 14 14 15 15 15 15 13 10 10 11 9 9 14 24 33 33 31 33 36 37 38 40 39 40 41 41 41 41 39 38 38 36
6 5 5 4 2 4 8 10 11 12 9 5 6 6 5 4 3 4 6 6 4 2 3 5 7 7 6 6 5 6 7 7 4 4 6 6 7 9 9 9 8 7 8 9 9 11 13 12 12 13 14 15 14 13 13 13 14 14 14 13 12 10 10 10 7 5 4 16 33 40 36 34 37 38 38 40 40 39 39 38 38 38 38 39 39 36
4 3 2 3 4 7 11 11 9 7 4 4 7 6 5 5 5 6 5 5 4 2 2 4 6 6 6 6 6 7 8 7 7 7 8 7 7 8 9 10 10 9 9 8 8 11 12 11 10 11 13 15 14 13 13 14 13 13 12 11 10 9 8 9 8 6 4 7 23 35 37 35 37 39 40 41 42 41 38 36 37 37 37 38 39 37
7 6 4 3 5 7 8 7 3 2 3 6 7 6 5 6 6 6 4 3 2 1 3 5 6 6 6 6 7 8 9 9 10 10 8 8 8 8 8 8 8 7 6 6 7 10 10 9 9 10 12 14 13 13 13 13 12 12 12 10 10 9 7 9 9 4 6 8 17 27 30 31 33 38 45 48 45 43 41 38 37 38 37 36 38 39
5 8 6 4 4 5 7 8 5 3 5 7 8 7 7 8 8 6 3 1 2 3 4 6 7 6 5 6 8 9 9 10 12 12 11 11 11 11 10 10 9 7 5 5 8 10 11 11 8 8 9 11 12 12 12 11 10 10 10 9 9 10 8 8 8 4 2 9 16 18 23 25 22 23 36 47 44 40 40 38 37 37 36 35 36 37
6 8 6 5 5 6 9 11 9 6 6 9 9 9 9 10 8 5 2 1 2 3 3 1 4 5 4 4 7 8 7 8 10 12 13 12 11 11 10 9 9 8 7 7 9 10 11 11 9 7 6 7 8 8 8 8 5 4 5 6 6 7 8 9 5 3 2 2 9 12 16 20 16 14 27 38 38 34 34 34 33 34 34 33 34 35
6 6 4 4 6 7 11 13 11 6 5 8 9 10 9 7 6 5 4 3 2 4 6 5 3 2 2 3 4 4 3 4 6 8 9 7 6 7 6 6 5 6 6 7 9 9 9 8 7 5 3 2 2 2 3 2 1 2 2 3 5 6 8 10 8 3 1 0 3 6 7 11 13 11 18 28 32 30 29 30 31 33 33 31 31 32
6 6 6 7 9 10 12 12 8 3 3 5 7 8 7 6 6 7 7 6 5 6 8 8 7 5 3 2 2 1 1 0 4 6 5 4 4 3 2 2 3 3 2 3 5 6 5 5 5 5 4 3 3 3 2 2 1 4 5 5 5 8 10 9 9 7 5 2 2 4 4 3 5 7 11 17 23 25 26 27 28 30 31 31 30 28
6 5 7 9 9 8 9 9 6 4 6 7 8 9 11 10 10 10 9 8 9 10 10 10 9 10 9 7 5 3 2 2 4 4 4 3 3 2 2 1 2 3 2 1 1 3 4 4 3 4 4 4 3 3 2 0 1 2 3 4 5 7 7 7 7 7 7 5 4 3 3 4 5 6 7 9 12 16 17 18 19 20 22 25 26 24
9 5 7 10 11 12 14 15 14 12 13 14 14 13 13 13 12 12 11 11 13 15 14 13 13 14 14 11 8 6 3 1 1 1 1 1 2 2 2 1 2 2 2 2 2 2 2 4 4 3 3 2 2 1 2 1 0 1 2 3 3 3 3 3 4 4 5 5 5 5 5 5 5 6 7 8 10 10 10 10 10 11 12 15 17 18
16 14 16 18 20 22 21 18 17 16 15 15 15 13 12 12 13 13 12 13 16 17 17 16 17 17 16 13 10 8 5 4 3 3 3 4 4 4 4 4 4 4 4 4 4 4 4 4 3 3 2 2 1 1 1 1 1 1 1 2 2 2 2 2 2 2 2 3 3 3 4 4 5 6 7 7 8 9 9 10 10 9 10 12 13 13
18 19 22 22 22 23 21 17 16 16 15 14 14 14 14 14 13 13 13 14 16 16 17 17 17 16 14 12 10 8 7 7 7 7 6 6 6 6 6 5 5 6 7 7 7 7 7 8 7 6 6 5 5 4 4 3 2 2 2 2 1 1 1 1 1 2 2 2 2 1 1 0 0 2 3 4 5 6 6 7 7 7 8 9 10 11
17 19 21 21 21 22 20 15 15 16 16 14 13 14 13 13 12 12 12 14 14 15 15 15 14 13 11 10 9 8 8 7 7 6 5 4 5 5 5 4 5 6 7 7 8 9 9 9 9 9 8 8 8 7 7 6 5 4 3 3 3 3 3 3 3 3 2 2 1 1 2 2 1 1 1 2 3 3 4 4 5 5 6 6 7 8
17 19 20 20 22 23 18 12 10 13 15 13 12 12 12 12 11 11 12 14 13 13 12 12 12 11 9 8 8 7 7 6 6 5 4 4 3 3 3 4 5 6 7 8 8 8 9 9 9 10 9 8 8 8 7 7 7 7 6 6 5 5 4 4 4 4 4 4 3 3 3 3 3 3 3 3 4 4 4 5 5 5 6 6 7 8
14 17 19 20 21 19 14 9 6 9 14 14 11 11 12 11 10 11 12 12 12 11 10 9 8 8 7 7 7 7 6 6 6 6 7 8 7 5 4 5 7 8 8 9 9 9 9 9 9 10 11 10 9 9 9 8 8 8 7 7 7 6 5 5 4 4 4 4 4 4 4 4 5 5 5 5 5 6 6 6 6 7 7 7 7 8
13 13 13 16 19 17 11 7 4 6 12 15 12 12 13 12 12 12 12 12 12 11 10 9 8 7 7 8 8 9 8 8 8 9 11 13 12 10 9 10 11 12 12 12 13 12 11 10 10 10 11 11 11 11 11 11 10 10 10 9 8 7 6 6 5 5 5 6 6 5 6 6 6 6 6 6 6 6 6 7 7 8 8 8 9 9
Wind_Direction
197 201 206 212 209 209 213 210 215 231 239 246 256 259 271 274 266 273 246 214 199 196 198 206 231 236 228 244 262 261 244 235 244 248 241 245 251 255 262 263 265 273 273 273 271 263 263 262 253 250 256 267 265 256 263 266 264 268 269 274 281 287 291 301 286 267 274 269 253 250 245 238 236 235 233 233 234 229 233 232 218 210 206 204 206 206
197 212 214 211 209 206 208 214 221 229 236 249 261 271 287 271 264 291 251 202 187 188 196 202 211 222 230 242 247 250 258 260 258 247 228 227 239 253 265 268 268 268 264 267 274 269 263 261 262 262 261 268 270 263 266 269 270 271 270 271 279 289 296 309 311 290 283 277 264 256 247 245 245 242 240 237 238 234 229 226 215 204 199 198 203 206
215 230 231 217 206 204 209 217 228 236 242 256 264 270 279 262 268 303 208 189 188 189 208 213 209 218 240 250 243 242 254 271 275 265 246 233 237 254 268 272 266 262 267 275 279 274 267 268 272 265 250 258 268 267 268 269 267 269 273 274 277 287 299 311 318 308 292 278 271 265 255 254 250 244 243 234 230 231 223 218 207 194 190 193 200 204
216 227 225 208 199 209 227 228 233 242 241 248 263 266 267 259 266 289 251 207 215 236 238 225 222 224 240 265 255 242 251 269 269 262 261 259 258 266 271 270 262 264 274 278 278 277 273 274 273 263 251 256 265 265 268 271 271 273 274 274 280 288 294 305 321 328 310 289 279 273 264 260 253 241 237 228 225 223 216 209 192 182 185 191 197 203
218 222 166 201 206 207 221 230 237 242 234 235 264 279 265 257 257 274 285 279 267 269 235 214 222 224 242 291 275 247 241 245 249 251 261 268 267 268 268 265 259 262 270 272 274 275 271 272 271 267 263 259 261 267 273 274 273 271 268 272 286 293 291 298 327 341 329 313 301 290 272 260 253 244 234 227 225 215 203 196 179 174 184 190 195 200
229 238 236 239 240 214 213 228 235 234 233 241 254 259 269 266 258 260 273 288 290 283 248 223 232 234 256 292 294 271 248 239 243 249 258 266 271 269 261 256 254 258 266 268 271 271 265 265 263 263 265 261 265 275 279 275 271 267 266 269 275 281 284 291 324 342 329 321 316 312 286 263 257 256 243 228 222 208 194 190 182 179 185 187 191 198
235 240 240 240 237 215 210 221 223 217 232 247 249 248 263 273 263 253 256 271 285 287 279 271 274 271 274 273 276 289 280 270 264 260 263 261 261 262 243 233 237 248 260 263 266 268 261 258 260 265 264 260 268 280 283 278 273 270 268 268 264 264 274 283 299 321 326 327 324 330 309 273 259 256 245 230 219 202 189 186 184 184 184 185 191 199
237 241 227 225 226 216 213 217 223 229 234 247 251 242 241 250 252 244 241 249 265 278 277 280 289 289 285 282 279 284 286 286 284 282 272 247 238 245 228 220 229 238 251 258 262 264 253 246 248 252 246 244 258 271 272 271 273 275 269 264 262 258 264 269 251 275 319 327 324 328 315 292 265 245 238 234 220 196 185 183 183 184 183 186 192 198
235 234 207 214 231 225 221 223 228 235 233 243 254 242 238 251 257 245 234 236 260 285 278 277 289 292 286 293 294 282 272 274 283 295 244 197 210 230 221 223 235 239 249 258 261 252 239 233 232 236 237 243 256 254 249 248 260 273 268 257 257 252 249 248 233 244 278 287 300 310 301 298 272 239 231 230 213 193 188 184 184 185 184 185 189 197
228 226 211 221 232 222 218 222 226 231 233 241 250 249 249 259 264 247 225 228 267 291 291 279 272 271 288 294 291 276 253 251 264 267 192 177 198 218 225 239 251 252 256 265 262 239 233 230 224 230 244 256 262 262 263 261 259 261 249 241 246 240 237 244 241 247 261 264 280 291 279 283 277 247 227 216 202 192 190 187 186 189 186 184 186 198
226 230 228 219 216 220 221 224 229 228 232 241 241 245 256 256 261 257 229 246 277 286 290 277 256 251 281 306 303 279 229 232 246 246 222 203 205 212 231 252 265 270 271 283 290 270 261 247 228 229 251 263 269 277 284 278 270 260 238 226 233 232 237 247 246 243 244 240 251 271 262 262 266 256 228 210 200 193 190 189 188 189 187 184 188 201
231 236 235 217 214 222 212 214 226 228 229 234 224 229 262 264 253 277 256 249 262 272 270 268 258 259 268 46 35 226 212 236 261 264 245 237 238 235 239 246 257 274 282 285 287 285 284 273 257 256 266 270 273 274 271 269 274 274 256 229 221 227 235 240 239 231 229 224 224 241 248 248 249 249 229 210 204 199 194 191 187 185 187 188 193 202
232 236 233 217 223 231 207 204 217 228 231 223 215 222 248 288 239 245 252 225 221 243 255 256 254 257 221 97 98 236 214 224 255 267 258 247 258 263 265 268 265 268 275 277 281 283 283 280 279 283 280 273 275 275 274 275 278 279 266 236 219 221 226 230 231 225 223 227 232 232 231 239 239 234 222 206 203 202 198 193 187 186 188 189 194 200
228 232 231 222 228 227 219 222 221 222 224 214 211 216 215 189 71 239 217 214 233 239 240 238 242 218 144 112 84 213 191 183 228 261 269 261 260 258 262 273 273 271 273 276 281 280 276 274 277 283 282 278 280 278 276 276 272 272 263 240 224 220 221 225 227 224 224 230 240 237 224 224 228 224 215 202 198 199 198 194 189 191 190 188 193 197
225 222 225 227 233 224 228 243 226 219 239 227 207 205 216 215 208 217 215 203 192 210 224 218 225 205 154 133 72 29 251 245 235 266 277 272 267 258 257 263 268 270 270 274 282 279 275 275 275 277 277 277 278 277 277 275 270 270 261 243 231 223 220 222 222 223 226 231 242 243 228 218 221 219 211 201 197 198 197 194 192 194 191 189 193 195
243 232 221 222 235 234 235 239 214 217 254 250 207 204 221 229 223 233 256 255 246 62 190 183 99 214 186 160 163 290 277 266 267 270 270 269 266 262 263 265 267 267 265 266 271 270 273 278 279 276 276 277 276 276 277 272 267 271 257 238 233 230 222 221 221 224 229 232 240 243 234 225 221 214 208 202 201 201 198 196 195 195 192 191 194 192
241 239 221 218 234 233 222 212 205 223 237 246 222 215 216 225 232 241 258 261 254 145 168 192 122 137 167 151 139 218 250 257 267 260 256 260 261 263 266 268 270 272 268 264 261 260 265 272 274 272 269 268 264 266 271 267 263 265 242 223 230 237 230 225 224 225 230 232 233 236 236 232 225 215 208 206 207 204 200 197 198 197 194 192 191 189
240 245 228 221 232 223 208 209 217 229 229 240 265 248 214 216 229 237 249 265 249 128 187 198 148 139 147 133 137 181 220 236 251 254 258 261 263 269 274 271 273 275 269 260 257 258 262 266 266 265 264 255 246 250 256 255 251 247 229 220 230 239 236 231 227 224 228 229 227 231 234 232 227 217 211 212 210 205 200 198 198 197 193 189 187 188
235 250 239 220 237 235 215 221 227 223 236 248 257 266 245 221 229 237 242 232 162 193 267 154 134 122 90 116 158 190 204 226 252 264 273 278 280 286 288 281 275 268 257 250 259 266 269 269 266 265 267 258 245 240 239 239 237 228 222 223 229 237 238 235 231 227 224 221 221 226 228 228 226 216 210 210 206 202 200 196 193 191 189 185 187 189
219 227 228 200 231 246 212 212 223 223 227 237 245 258 264 259 259 252 249 258 176 165 233 132 116 96 75 115 148 207 213 240 255 258 271 285 294 293 285 278 269 262 256 250 259 263 254 252 249 243 247 250 244 238 233 232 229 216 212 218 225 234 237 235 234 230 221 214 217 221 221 221 220 211 203 201 199 197 196 194 193 194 188 184 188 190
204 206 223 207 221 244 202 194 215 234 236 232 237 250 256 254 253 244 240 250 250 221 197 135 104 116 138 136 151 193 217 244 250 256 276 291 297 294 283 273 264 260 258 253 253 247 237 242 238 219 217 224 229 234 233 233 232 219 210 214 226 235 236 234 232 225 215 211 216 219 216 211 213 208 196 190 191 192 194 197 201 199 190 185 188 187
138 174 214 238 228 239 145 169 209 237 267 320 265 260 264 266 263 237 231 248 268 331 28 89 142 161 143 150 176 194 226 253 262 279 298 300 299 296 280 267 262 263 260 255 253 248 245 251 255 243 225 219 221 223 222 228 240 234 218 218 232 241 242 239 232 223 220 219 220 225 216 201 207 208 193 186 188 190 196 201 198 191 186 186 187 181
122 152 193 260 250 229 186 177 248 277 281 306 352 327 318 342 359 66 79 42 47 23 44 73 85 161 144 151 194 213 246 267 282 291 293 290 287 282 272 266 270 274 267 258 250 247 250 254 259 265 267 259 244 230 228 225 219 221 220 228 241 250 255 248 229 239 253 246 239 242 225 200 207 209 193 185 189 192 195 197 191 185 184 185 183 179
173 158 233 261 278 241 212 213 266 309 286 339 9 328 307 339 7 70 97 57 52 43 77 87 60 158 141 155 213 234 261 274 282 283 278 267 238 241 259 266 273 274 270 265 256 247 247 250 257 263 265 266 263 258 271 286 162 184 209 227 238 244 239 185 166 233 267 262 256 250 230 209 209 210 194 185 190 193 192 191 188 184 183 183 181 180
216 191 267 261 310 280 235 241 267 269 272 39 36 348 315 314 324 315 242 208 74 72 112 123 133 167 164 196 220 238 263 271 282 289 285 276 257 251 243 232 254 267 271 275 268 251 243 245 256 265 268 272 275 278 290 302 250 211 212 223 233 240 231 189 178 188 214 246 262 252 232 217 207 205 196 186 188 192 190 188 187 185 184 184 183 181
228 222 241 215 159 175 234 279 297 307 314 341 41 23 332 296 289 286 248 193 129 107 125 132 142 153 174 217 230 238 249 257 288 325 312 298 295 285 256 221 236 264 284 295 293 285 270 263 268 274 281 290 298 305 311 308 282 245 225 225 233 240 235 207 192 193 199 214 230 242 237 224 209 202 196 188 188 192 191 188 188 186 186 187 185 183
223 218 230 227 208 218 258 289 297 317 329 323 329 41 360 324 315 299 259 183 148 137 122 139 155 155 170 218 236 245 248 256 282 306 303 298 297 303 309 309 304 301 305 314 319 318 309 299 297 298 305 311 316 320 317 305 284 259 242 234 230 234 234 222 210 205 202 202 207 223 238 228 216 206 197 192 192 194 193 190 189 188 190 190 188 186
180 181 210 216 209 238 261 295 309 289 301 318 307 242 266 2 9 340 7 130 153 151 129 162 178 175 182 210 231 246 252 260 278 290 296 299 299 309 321 326 328 329 327 327 330 327 319 313 312 313 321 330 337 341 340 326 292 263 253 245 236 233 233 231 227 217 206 202 204 208 221 224 221 213 200 194 195 196 194 192 192 193 194 194 191 190
146 151 172 191 202 268 246 273 314 216 163 106 68 118 163 206 278 206 117 120 157 182 169 177 184 185 188 204 225 241 250 257 268 276 280 287 294 303 312 318 322 327 331 334 336 332 327 327 331 337 345 353 357 358 358 352 329 284 261 253 246 241 235 234 236 228 214 207 205 202 205 215 219 215 204 197 197 198 195 193 195 197 199 198 195 194
150 139 143 177 196 210 208 210 210 189 155 116 94 89 105 120 125 134 126 130 150 157 164 177 184 186 190 203 222 238 251 262 267 257 244 251 271 290 306 318 323 325 332 338 332 329 334 339 344 353 0 2 1 359 357 353 343 320 285 262 250 246 241 233 231 230 222 216 210 203 201 209 216 217 209 202 200 200 196 195 197 200 203 202 199 198
159 144 149 175 183 183 179 172 185 207 188 130 110 98 101 115 116 121 123 130 140 138 155 184 189 183 189 207 225 240 253 270 289 287 254 259 274 292 307 316 317 320 332 339 331 328 337 342 348 358 2 0 358 356 355 351 342 332 315 291 268 253 245 235 227 229 228 225 219 211 204 205 210 214 212 206 202 201 199 198 200 203 205 204 203 205
139 140 146 174 167 154 171 178 175 179 175 133 91 71 65 91 118 125 125 129 141 139 155 191 194 177 187 218 232 241 246 258 283 290 278 289 294 290 292 301 308 316 332 340 338 337 339 341 346 353 355 355 355 354 353 350 343 338 332 320 302 271 251 238 229 228 229 227 224 220 214 209 206 209 211 207 202 200 200 201 202 204 206 206 208 211
111 127 122 169 172 140 166 200 190 170 154 72 47 48 51 44 46 77 122 128 150 153 158 181 189 178 196 228 238 242 241 246 260 261 264 283 286 281 288 303 311 322 335 338 339 340 338 335 337 342 348 353 354 353 351 347 343 340 337 334 325 303 269 246 234 232 233 228 222 220 219 214 207 206 206 204 202 200 200 202 203 204 207 211 214 216
187 156 128 151 170 142 158 203 180 152 102 81 72 66 87 66 28 240 145 119 136 146 149 167 184 189 214 252 263 251 243 247 255 259 256 257 273 287 294 300 307 317 323 325 332 335 332 331 333 336 344 350 350 351 349 344 341 339 336 335 332 325 308 273 245 237 239 233 222 216 216 214 209 206 205 204 203 200 199 203 205 207 211 214 216 219
156 167 158 170 176 142 144 163 142 118 112 125 136 123 100 87 77 137 124 122 138 150 155 177 197 204 238 279 267 244 242 244 246 251 257 269 289 284 272 272 281 297 312 318 324 329 328 328 329 331 337 342 344 349 350 346 342 337 334 334 333 332 333 314 275 252 249 241 225 212 208 210 210 206 204 205 205 202 201 204 208 215 221 220 216 218
195 188 187 185 188 142 117 86 113 131 131 135 141 135 138 143 108 129 136 137 144 158 179 211 235 246 261 271 258 243 243 239 233 240 250 271 284 268 253 255 264 285 313 315 315 321 323 323 326 328 329 333 342 351 354 351 345 338 332 329 330 330 334 333 316 282 247 224 214 209 206 206 207 206 203 205 207 205 204 207 211 221 229 225 216 217
199 195 193 178 143 106 98 98 120 136 132 132 151 162 178 183 170 166 157 142 134 151 204 241 263 274 273 260 237 224 229 228 225 233 240 258 270 260 252 255 260 279 298 299 302 312 314 317 324 327 326 332 345 352 351 348 343 337 331 325 320 322 332 337 329 306 236 185 191 201 206 202 200 203 206 208 210 209 208 211 218 225 227 221 215 217
190 201 198 164 145 128 113 109 127 145 140 155 165 165 161 160 179 197 178 144 145 187 235 245 256 269 273 257 227 207 208 216 220 225 232 246 254 254 257 254 251 259 269 276 294 305 306 311 322 326 331 342 351 350 344 345 343 336 331 325 317 318 331 340 335 299 271 150 160 180 196 202 203 207 210 210 212 214 214 215 219 223 221 216 216 220
233 228 222 169 151 146 135 126 121 129 154 166 163 153 143 147 170 191 182 153 156 223 258 251 246 251 254 242 223 211 211 220 222 218 222 237 237 236 244 243 239 242 248 267 297 301 297 301 313 327 337 344 346 344 340 342 342 334 327 321 319 325 332 331 334 312 236 198 158 159 175 188 195 204 211 215 215 215 219 220 217 216 216 216 219 222
211 195 197 191 175 165 148 129 105 107 146 155 153 152 150 145 151 164 177 224 289 311 282 247 231 230 235 229 224 225 232 238 228 211 208 219 223 221 222 221 220 223 235 274 296 295 293 297 307 325 338 340 340 338 334 332 333 327 319 315 318 329 344 336 323 328 228 206 196 181 173 172 170 177 194 206 213 214 216 217 212 211 214 216 217 217
153 163 175 179 169 165 151 129 110 117 146 155 161 161 147 139 150 170 182 220 295 357 16 215 206 210 225 232 227 232 250 259 238 214 204 206 209 211 214 212 209 212 224 254 275 280 284 289 295 302 318 338 345 335 319 311 310 309 319 338 343 350 13 21 6 325 347 205 214 215 201 197 198 170 170 188 203 207 207 206 204 205 205 203 205 210
134 136 142 145 129 136 144 131 111 104 140 161 169 166 150 142 155 162 135 116 81 54 63 76 107 157 212 237 227 239 284 284 239 216 205 200 201 210 223 231 232 223 215 228 249 259 261 261 261 260 269 324 20 12 332 294 204 137 86 36 26 37 47 48 52 61 30 236 213 226 222 219 226 210 184 188 197 201 200 201 202 203 203 203 210 220
122 109 99 115 119 121 127 123 109 94 136 164 175 168 153 141 129 117 107 100 90 81 81 87 97 110 117 131 162 197 350 212 204 208 207 205 209 216 234 277 298 291 254 220 230 235 230 225 213 189 168 152 136 115 70 37 78 95 94 95 77 64 64 62 63 70 73 76 169 202 212 211 210 209 204 201 204 208 209 207 207 208 212 218 224 228
110 117 116 122 129 126 110 102 101 101 109 123 137 137 130 123 112 101 94 97 100 95 92 97 104 107 106 103 105 104 107 162 190 201 207 219 234 254 284 326 351 348 345 355 210 200 182 167 164 157 144 135 138 147 149 79 7 26 60 81 88 83 79 80 80 79 80 83 90 114 150 163 168 178 189 192 200 208 212 211 212 214 218 221 223 223
86 115 138 131 126 119 107 104 107 106 105 110 114 117 118 113 104 97 94 98 99 94 92 92 91 91 89 84 79 80 84 114 200 215 249 306 326 333 338 360 39 44 47 69 83 107 129 126 120 114 114 116 106 109 144 155 47 359 353 17 44 58 64 79 90 88 85 96 106 107 112 123 135 150 163 170 175 182 187 192 199 205 209 213 215 213
100 113 122 118 114 106 98 100 107 108 109 112 112 111 110 104 100 101 101 99 95 91 90 87 82 80 78 73 70 71 73 77 77 66 60 56 52 50 51 50 47 43 44 47 49 47 47 51 55 53 50 52 34 22 46 78 59 18 347 338 6 22 16 34 57 60 58 70 91 111 118 123 126 132 143 154 163 169 172 175 178 181 186 193 196 198
106 114 115 115 114 107 99 103 112 111 110 110 109 110 108 104 103 103 98 93 91 89 88 85 82 80 78 78 79 81 85 91 89 84 83 78 71 66 62 54 43 34 32 31 28 27 26 24 22 20 19 17 10 356 360 12 8 342 337 330 331 350 354 353 13 32 41 34 23 10 3 8 128 144 150 159 173 182 183 185 189 189 190 193 196 199
112 114 112 112 111 107 106 112 116 113 110 108 106 105 103 100 100 97 91 88 88 90 92 92 92 91 90 94 98 96 96 97 92 90 93 91 84 76 61 45 34 23 16 14 13 13 12 8 5 4 4 6 4 355 348 350 345 333 333 339 335 339 344 339 342 350 348 337 327 308 307 308 299 281 249 210 210 215 214 215 218 218 216 218 221 223
116 114 111 110 106 104 106 108 111 115 113 109 106 104 100 97 97 94 90 89 88 89 92 97 102 103 104 103 97 88 86 84 74 63 57 53 53 49 25 5 5 2 356 352 350 351 353 352 348 347 346 348 352 347 336 331 329 326 331 339 338 337 343 348 349 347 335 322 312 297 282 275 273 271 263 253 248 244 244 243 240 240 242 239 238 240
108 111 113 110 106 108 108 94 93 115 111 104 104 106 103 101 99 96 92 90 89 91 91 93 100 106 107 99 82 69 69 71 62 46 38 34 28 23 18 11 8 6 3 359 357 354 350 347 342 335 331 334 340 336 325 319 318 317 317 320 322 327 336 338 332 324 317 310 306 299 291 283 279 275 270 265 260 255 252 252 248 246 247 244 243 245
92 100 111 112 112 117 115 97 103 120 103 92 86 86 88 87 83 82 79 76 80 90 90 85 85 93 100 96 79 63 56 58 59 51 37 30 26 21 18 15 13 13 12 10 10 11 7 359 349 337 330 333 338 331 321 316 316 314 311 308 308 315 324 322 310 299 288 280 277 278 282 283 280 277 273 269 263 259 255 253 252 249 246 244 243 243
Height
3094 3094 3094 3094 3095 3097 3099 3101 3103 3103 3104 3104 3105 3107 3108 3107 3106 3105 3106 3106 3108 3109 3109 3110 3112 3112 3113 3114 3114 3116 3118 3118 3118 3118 3117 3115 3114 3114 3116 3118 3119 3120 3122 3122 3122 3123 3125 3125 3126 3127 3126 3126 3126 3125 3127 3129 3130 3131 3133 3134 3134 3135 3136 3137 3137 3138 3137 3137 3138 3138 3138 3139 3139 3140 3141 3143 3145 3147 3147 3148 3149 3150 3152 3154 3156 3157
3093 3092 3092 3092 3094 3096 3098 3101 3102 3102 3103 3103 3104 3105 3105 3105 3104 3104 3105 3105 3106 3108 3109 3110 3111 3111 3113 3113 3113 3113 3115 3116 3117 3117 3116 3115 3114 3113 3114 3116 3117 3118 3120 3121 3122 3123 3124 3124 3124 3125 3125 3125 3124 3125 3127 3128 3129 3131 3132 3133 3133 3134 3136 3136 3137 3137 3137 3136 3136 3137 3138 3138 3138 3138 3139 3141 3143 3145 3145 3145 3146 3148 3150 3152 3155 3155
3092 3089 3089 3091 3094 3096 3098 3100 3101 3101 3102 3103 3103 3103 3104 3104 3103 3103 3104 3105 3106 3107 3108 3108 3109 3110 3112 3113 3112 3112 3113 3114 3115 3116 3116 3115 3115 3114 3114 3114 3115 3116 3117 3118 3120 3121 3122 3122 3123 3123 3124 3124 3124 3124 3125 3127 3129 3131 3131 3132 3132 3133 3134 3135 3136 3137 3136 3135 3135 3135 3137 3137 3137 3137 3138 3139 3141 3142 3143 3143 3144 3146 3149 3151 3153 3154
3089 3086 3087 3090 3092 3094 3096 3098 3099 3100 3101 3102 3102 3102 3102 3103 3103 3103 3104 3106 3107 3107 3107 3106 3107 3109 3110 3110 3111 3112 3112 3112 3113 3114 3115 3114 3114 3114 3114 3113 3113 3114 3114 3115 3117 3119 3119 3119 3120 3121 3122 3123 3123 3123 3124 3126 3129 3131 3131 3130 3130 3131 3132 3132 3134 3135 3135 3135 3134 3134 3135 3136 3137 3137 3138 3139 3140 3140 3141 3141 3142 3145 3148 3150 3151 3152
3085 3084 3087 3090 3091 3093 3094 3095 3097 3099 3099 3100 3101 3102 3101 3102 3102 3102 3102 3104 3105 3106 3106 3106 3106 3106 3107 3109 3109 3109 3111 3111 3111 3112 3113 3113 3113 3113 3113 3112 3111 3111 3111 3113 3115 3117 3118 3118 3119 3120 3121 3122 3121 3121 3123 3127 3130 3130 3129 3128 3129 3131 3132 3132 3132 3132 3133 3133 3133 3133 3133 3134 3134 3135 3136 3136 3137 3138 3139 3140 3141 3144 3147 3148 3149 3150
3083 3084 3088 3089 3090 3091 3092 3094 3096 3096 3097 3098 3100 3102 3102 3102 3102 3101 3101 3102 3103 3104 3105 3106 3105 3104 3105 3107 3107 3108 3109 3110 3111 3111 3111 3112 3113 3113 3112 3111 3109 3108 3108 3110 3113 3115 3117 3118 3119 3120 3120 3120 3120 3120 3123 3127 3129 3128 3127 3127 3129 3131 3132 3131 3130 3130 3130 3131 3131 3131 3131 3131 3131 3132 3133 3134 3134 3136 3138 3139 3140 3142 3145 3146 3147 3148
3083 3084 3088 3088 3089 3090 3092 3093 3094 3095 3096 3097 3099 3101 3102 3103 3102 3102 3102 3102 3102 3102 3103 3105 3105 3103 3104 3106 3107 3108 3108 3109 3110 3110 3110 3112 3111 3109 3109 3108 3107 3107 3107 3108 3111 3114 3116 3117 3119 3120 3118 3117 3118 3120 3122 3126 3127 3126 3126 3127 3128 3131 3132 3131 3129 3128 3128 3129 3129 3129 3129 3129 3129 3130 3131 3132 3132 3133 3135 3136 3138 3140 3142 3144 3145 3147
3082 3084 3086 3086 3088 3089 3090 3092 3092 3094 3096 3097 3098 3100 3101 3103 3103 3103 3103 3102 3102 3102 3102 3103 3105 3104 3104 3105 3106 3107 3107 3108 3108 3106 3107 3107 3107 3105 3105 3105 3105 3106 3107 3108 3110 3112 3114 3115 3117 3116 3114 3114 3117 3119 3121 3124 3125 3124 3125 3127 3127 3130 3132 3131 3128 3127 3127 3127 3127 3127 3128 3127 3127 3128 3129 3130 3130 3131 3132 3134 3135 3137 3140 3141 3143 3145
3082 3083 3084 3085 3086 3087 3088 3090 3091 3093 3095 3096 3097 3098 3099 3101 3102 3102 3102 3102 3102 3101 3100 3101 3105 3104 3102 3104 3106 3106 3106 3106 3104 3103 3103 3102 3102 3103 3104 3104 3104 3105 3106 3106 3108 3109 3110 3111 3113 3114 3113 3114 3116 3117 3118 3121 3122 3123 3125 3126 3126 3128 3130 3129 3127 3126 3126 3126 3126 3126 3126 3127 3126 3126 3127 3128 3128 3129 3130 3131 3132 3134 3137 3139 3141 3142
3080 3082 3083 3084 3084 3086 3087 3089 3091 3092 3094 3095 3096 3097 3098 3099 3100 3099 3099 3100 3100 3100 3100 3102 3104 3103 3101 3103 3105 3104 3104 3104 3101 3101 3102 3101 3102 3103 3103 3104 3104 3103 3104 3105 3106 3107 3108 3110 3112 3114 3114 3115 3116 3117 3119 3122 3122 3123 3124 3125 3125 3126 3128 3127 3125 3125 3125 3124 3124 3125 3125 3126 3126 3125 3125 3126 3127 3127 3128 3129 3130 3132 3135 3137 3139 3140
3078 3080 3082 3082 3083 3085 3086 3087 3089 3091 3092 3094 3095 3096 3097 3097 3097 3097 3097 3098 3099 3099 3101 3103 3104 3103 3103 3103 3103 3102 3101 3102 3101 3101 3102 3103 3103 3103 3103 3104 3103 3102 3103 3104 3106 3107 3108 3109 3111 3112 3113 3114 3115 3117 3119 3121 3122 3123 3123 3123 3123 3124 3126 3125 3124 3123 3123 3122 3122 3123 3123 3125 3126 3125 3124 3124 3125 3126 3127 3128 3129 3131 3133 3135 3137 3139
3076 3078 3080 3081 3082 3083 3084 3086 3087 3089 3091 3092 3094 3095 3096 3096 3096 3096 3097 3099 3100 3100 3100 3102 3103 3103 3104 3103 3102 3101 3101 3101 3101 3102 3103 3103 3104 3103 3103 3103 3102 3102 3103 3104 3105 3106 3106 3107 3108 3108 3109 3112 3114 3115 3114 3116 3119 3121 3122 3121 3120 3121 3122 3122 3122 3121 3121 3120 3120 3120 3122 3123 3125 3126 3125 3124 3126 3126 3127 3127 3129 3130 3132 3134 3136 3138
3075 3076 3078 3080 3081 3082 3083 3085 3086 3088 3089 3091 3092 3094 3095 3095 3096 3098 3098 3099 3100 3098 3098 3100 3102 3102 3103 3103 3102 3102 3101 3100 3102 3102 3103 3103 3104 3103 3102 3100 3100 3101 3103 3103 3103 3103 3103 3104 3104 3103 3106 3109 3110 3111 3111 3112 3115 3117 3118 3118 3118 3118 3119 3120 3120 3119 3119 3119 3119 3119 3120 3122 3124 3125 3125 3125 3126 3127 3127 3127 3128 3129 3131 3133 3136 3137
3074 3075 3077 3078 3079 3081 3082 3084 3085 3086 3087 3089 3091 3092 3094 3095 3097 3099 3098 3098 3098 3096 3097 3099 3100 3101 3102 3102 3102 3102 3101 3101 3102 3102 3102 3103 3102 3102 3100 3099 3098 3099 3101 3102 3102 3102 3101 3101 3101 3102 3104 3106 3107 3108 3109 3110 3112 3113 3114 3116 3115 3115 3116 3117 3117 3117 3117 3118 3119 3119 3119 3120 3122 3124 3125 3125 3126 3127 3127 3128 3129 3129 3131 3133 3135 3136
3073 3073 3074 3076 3077 3078 3080 3082 3083 3085 3086 3088 3089 3090 3091 3092 3095 3097 3096 3095 3095 3094 3095 3097 3098 3099 3100 3101 3101 3101 3101 3101 3102 3102 3101 3101 3101 3100 3099 3098 3098 3099 3100 3101 3101 3100 3099 3099 3099 3101 3102 3104 3105 3106 3106 3107 3108 3109 3111 3113 3113 3113 3113 3114 3115 3115 3115 3116 3117 3118 3118 3119 3120 3122 3124 3125 3125 3126 3127 3127 3128 3129 3130 3132 3134 3135
3072 3072 3073 3075 3076 3076 3078 3080 3082 3083 3084 3086 3087 3088 3089 3090 3093 3093 3092 3092 3092 3093 3094 3095 3096 3097 3097 3099 3100 3100 3100 3100 3100 3101 3100 3100 3099 3099 3098 3098 3098 3098 3099 3100 3099 3098 3098 3098 3098 3099 3100 3102 3103 3104 3104 3104 3105 3106 3108 3110 3111 3110 3110 3111 3112 3113 3113 3115 3115 3117 3118 3117 3118 3120 3123 3124 3125 3125 3126 3127 3128 3129 3130 3131 3133 3134
3071 3071 3072 3073 3074 3075 3077 3078 3081 3082 3082 3083 3085 3085 3086 3088 3091 3091 3090 3090 3090 3092 3093 3093 3096 3097 3097 3097 3098 3098 3098 3098 3098 3098 3098 3098 3097 3097 3097 3096 3095 3097 3098 3097 3097 3096 3096 3097 3097 3097 3098 3100 3101 3101 3102 3103 3104 3104 3105 3106 3107 3107 3107 3107 3109 3110 3111 3112 3114 3115 3117 3116 3117 3119 3121 3123 3124 3125 3126 3127 3128 3129 3130 3131 3132 3133
3069 3069 3070 3072 3073 3075 3077 3077 3079 3080 3081 3082 3083 3084 3085 3087 3088 3089 3089 3089 3089 3091 3091 3090 3094 3096 3097 3097 3098 3097 3097 3097 3096 3096 3096 3096 3096 3095 3095 3093 3092 3094 3096 3095 3095 3095 3095 3096 3097 3097 3097 3098 3098 3099 3100 3101 3102 3102 3103 3103 3103 3103 3103 3103 3105 3108 3110 3111 3113 3114 3115 3116 3116 3118 3121 3123 3124 3125 3126 3127 3128 3129 3130 3131 3132 3133
3068 3068 3069 3071 3072 3074 3076 3078 3078 3079 3080 3082 3082 3083 3085 3085 3086 3087 3087 3088 3089 3090 3089 3089 3092 3095 3096 3097 3098 3097 3096 3096 3096 3095 3095 3095 3095 3094 3093 3092 3091 3092 3093 3093 3093 3094 3095 3096 3097 3096 3096 3096 3097 3097 3097 3098 3099 3100 3101 3102 3102 3102 3102 3102 3103 3106 3109 3110 3111 3112 3112 3114 3115 3117 3120 3122 3123 3125 3126 3127 3128 3129 3130 3131 3132 3133
3066 3067 3068 3070 3071 3073 3074 3075 3077 3079 3080 3081 3082 3082 3084 3084 3084 3085 3085 3086 3087 3088 3089 3089 3092 3095 3096 3097 3098 3097 3096 3095 3095 3094 3094 3094 3093 3092 3092 3091 3090 3090 3091 3092 3093 3093 3095 3095 3096 3096 3095 3095 3096 3096 3096 3097 3097 3098 3099 3101 3103 3103 3103 3104 3104 3106 3108 3109 3108 3109 3110 3112 3114 3116 3118 3120 3122 3124 3126 3127 3128 3129 3130 3131 3132 3133
3064 3066 3067 3068 3070 3072 3072 3073 3077 3079 3079 3080 3081 3081 3082 3082 3082 3082 3083 3084 3085 3086 3087 3089 3093 3096 3096 3096 3097 3097 3096 3095 3095 3094 3094 3093 3091 3090 3090 3089 3088 3089 3089 3091 3093 3094 3094 3094 3094 3095 3095 3095 3095 3095 3096 3096 3096 3097 3098 3100 3102 3103 3103 3104 3104 3104 3105 3105 3106 3106 3108 3110 3112 3114 3116 3118 3120 3123 3125 3127 3128 3129 3129 3131 3132 3132
3063 3065 3067 3068 3069 3071 3071 3074 3077 3078 3078 3078 3080 3080 3080 3079 3080 3080 3082 3083 3084 3086 3087 3089 3094 3097 3096 3097 3097 3096 3096 3096 3095 3095 3094 3092 3091 3089 3088 3088 3088 3088 3089 3091 3093 3094 3094 3094 3093 3093 3094 3094 3094 3096 3096 3096 3096 3097 3098 3100 3101 3101 3102 3102 3102 3103 3104 3105 3107 3108 3108 3109 3111 3112 3114 3116 3118 3121 3124 3125 3126 3128 3129 3131 3131 3132
3064 3066 3067 3068 3069 3070 3070 3072 3075 3076 3077 3077 3078 3079 3079 3079 3079 3080 3082 3083 3084 3086 3087 3088 3093 3096 3096 3096 3096 3096 3096 3096 3095 3095 3093 3092 3091 3089 3089 3088 3088 3089 3090 3091 3092 3093 3093 3093 3092 3092 3092 3092 3094 3095 3095 3096 3097 3097 3098 3099 3098 3098 3099 3100 3102 3105 3107 3108 3109 3109 3109 3109 3109 3110 3112 3113 3116 3119 3122 3124 3125 3127 3128 3130 3130 3130
3064 3066 3068 3068 3069 3069 3069 3070 3073 3075 3076 3076 3077 3077 3077 3079 3080 3081 3082 3083 3083 3085 3086 3087 3092 3096 3096 3096 3096 3095 3095 3095 3095 3094 3092 3092 3091 3090 3090 3090 3090 3090 3090 3091 3091 3091 3091 3091 3091 3091 3091 3091 3092 3093 3093 3094 3095 3095 3095 3095 3095 3095 3096 3098 3100 3104 3106 3107 3107 3108 3108 3108 3108 3109 3110 3111 3114 3117 3120 3122 3124 3126 3128 3128 3129 3129
3064 3066 3068 3070 3070 3070 3071 3072 3074 3075 3075 3076 3077 3077 3076 3078 3079 3081 3082 3083 3084 3085 3086 3088 3092 3094 3095 3095 3095 3095 3094 3094 3093 3092 3091 3091 3091 3091 3091 3091 3091 3090 3090 3090 3090 3090 3090 3090 3090 3090 3089 3089 3090 3090 3091 3092 3092 3092 3092 3092 3092 3093 3094 3095 3097 3099 3102 3103 3104 3105 3105 3106 3106 3107 3108 3110 3112 3115 3118 3120 3123 3125 3126 3127 3127 3128
3064 3066 3068 3070 3072 3073 3074 3075 3076 3076 3076 3077 3078 3077 3076 3076 3078 3080 3081 3082 3084 3085 3086 3087 3090 3092 3094 3093 3093 3093 3093 3092 3091 3091 3090 3090 3090 3091 3091 3091 3091 3091 3090 3090 3090 3089 3090 3090 3089 3089 3088 3088 3088 3089 3090 3090 3090 3090 3090 3090 3090 3091 3092 3092 3093 3094 3096 3098 3099 3101 3102 3103 3104 3105 3106 3107 3110 3113 3116 3118 3121 3123 3124 3126 3126 3128
3064 3066 3068 3070 3071 3073 3075 3076 3077 3077 3077 3078 3078 3076 3075 3076 3078 3079 3080 3081 3082 3084 3085 3086 3088 3089 3091 3091 3091 3091 3091 3089 3089 3090 3090 3090 3089 3090 3090 3091 3091 3090 3090 3090 3089 3089 3089 3088 3088 3088 3087 3087 3087 3087 3088 3088 3088 3087 3088 3088 3088 3089 3089 3089 3089 3090 3092 3094 3096 3097 3098 3100 3101 3103 3104 3105 3108 3111 3113 3116 3119 3121 3123 3124 3125 3127
3064 3066 3068 3070 3071 3072 3074 3076 3077 3077 3078 3078 3078 3077 3076 3077 3078 3078 3079 3080 3081 3082 3084 3086 3087 3087 3087 3088 3089 3090 3089 3088 3089 3089 3089 3089 3089 3089 3089 3089 3089 3089 3089 3089 3088 3088 3087 3087 3087 3086 3086 3085 3085 3085 3085 3085 3085 3085 3085 3085 3086 3087 3087 3087 3087 3087 3089 3090 3092 3094 3096 3097 3099 3100 3102 3103 3105 3108 3111 3114 3117 3120 3121 3123 3124 3126
3064 3066 3068 3070 3071 3073 3074 3075 3076 3076 3077 3078 3077 3077 3077 3077 3077 3078 3079 3080 3080 3081 3083 3085 3086 3086 3086 3086 3087 3088 3088 3089 3089 3089 3089 3089 3089 3088 3088 3088 3088 3088 3087 3087 3087 3086 3086 3086 3085 3085 3084 3084 3083 3083 3083 3082 3082 3082 3082 3082 3082 3083 3084 3085 3085 3085 3086 3086 3088 3090 3092 3094 3095 3097 3099 3101 3103 3105 3108 3112 3115 3117 3119 3121 3123 3124
3065 3067 3068 3070 3071 3072 3073 3074 3075 3075 3075 3076 3077 3077 3077 3077 3077 3078 3079 3079 3080 3081 3082 3084 3084 3084 3085 3086 3086 3087 3088 3089 3089 3089 3089 3089 3088 3088 3088 3088 3087 3087 3086 3086 3085 3085 3084 3084 3084 3083 3083 3082 3082 3082 3081 3080 3080 3079 3079 3079 3079 3080 3080 3081 3082 3082 3082 3082 3082 3084 3087 3090 3092 3094 3096 3098 3100 3103 3106 3109 3113 3115 3117 3119 3121 3122
3065 3067 3068 3069 3070 3072 3073 3073 3073 3074 3074 3076 3077 3077 3077 3078 3078 3078 3079 3080 3080 3081 3082 3083 3083 3083 3084 3085 3086 3087 3088 3088 3088 3089 3089 3088 3088 3087 3087 3087 3087 3086 3086 3085 3085 3084 3084 3083 3083 3082 3082 3081 3081 3080 3080 3079 3078 3077 3076 3076 3076 3076 3076 3077 3078 3078 3078 3079 3079 3081 3083 3086 3089 3092 3094 3095 3098 3102 3105 3107 3110 3113 3115 3117 3119 3119
3065 3066 3068 3069 3070 3071 3072 3071 3072 3073 3074 3075 3077 3077 3077 3078 3078 3078 3079 3080 3081 3081 3082 3083 3083 3083 3084 3085 3085 3086 3087 3087 3088 3088 3088 3088 3087 3087 3087 3087 3087 3086 3086 3085 3084 3084 3083 3083 3082 3082 3081 3081 3080 3079 3078 3077 3076 3076 3075 3074 3073 3073 3073 3073 3073 3074 3074 3076 3077 3079 3081 3083 3086 3088 3091 3093 3096 3099 3102 3104 3107 3110 3113 3115 3115 3115
3064 3066 3067 3068 3069 3070 3071 3071 3071 3072 3074 3076 3077 3078 3078 3078 3078 3079 3079 3080 3081 3081 3082 3082 3082 3083 3084 3084 3085 3085 3086 3087 3087 3087 3087 3087 3087 3086 3086 3086 3086 3086 3085 3085 3084 3083 3082 3082 3081 3081 3081 3080 3080 3079 3078 3077 3075 3074 3073 3072 3071 3070 3070 3069 3070 3070 3071 3072 3073 3075 3077 3079 3081 3084 3087 3090 3093 3096 3099 3102 3105 3107 3109 3111 3111 3112
3064 3065 3066 3067 3068 3069 3070 3071 3071 3073 3076 3078 3079 3079 3079 3079 3079 3079 3079 3080 3080 3081 3082 3082 3083 3083 3084 3084 3085 3085 3086 3086 3086 3086 3086 3086 3085 3085 3085 3085 3085 3085 3085 3084 3083 3083 3082 3081 3080 3080 3080 3079 3079 3078 3077 3076 3075 3074 3072 3071 3070 3069 3068 3067 3066 3067 3068 3069 3070 3071 3074 3076 3078 3081 3084 3087 3089 3092 3095 3098 3101 3103 3105 3107 3109 3111
3063 3064 3065 3067 3068 3069 3070 3070 3072 3075 3077 3079 3079 3079 3079 3080 3080 3080 3080 3080 3081 3081 3082 3082 3083 3084 3084 3084 3084 3085 3085 3085 3085 3085 3085 3085 3084 3085 3085 3085 3085 3084 3084 3084 3083 3082 3081 3080 3079 3079 3079 3078 3078 3077 3076 3075 3074 3073 3072 3071 3070 3069 3067 3066 3065 3064 3065 3066 3067 3068 3071 3073 3076 3079 3082 3085 3087 3089 3091 3094 3097 3100 3102 3104 3107 3109
3061 3062 3064 3065 3066 3068 3069 3069 3072 3075 3077 3078 3078 3079 3080 3080 3080 3080 3080 3081 3081 3081 3082 3082 3082 3083 3083 3083 3083 3084 3084 3084 3084 3084 3084 3084 3084 3084 3084 3084 3084 3084 3084 3084 3084 3083 3082 3080 3079 3079 3078 3078 3077 3077 3076 3075 3074 3073 3072 3070 3069 3068 3067 3066 3065 3063 3064 3064 3064 3065 3068 3070 3074 3077 3080 3082 3085 3087 3089 3092 3094 3097 3099 3102 3105 3107
3061 3062 3063 3065 3065 3067 3068 3070 3073 3075 3076 3077 3078 3078 3079 3079 3080 3080 3080 3081 3081 3081 3081 3081 3081 3081 3082 3082 3082 3083 3083 3083 3083 3083 3083 3083 3083 3083 3083 3084 3084 3084 3084 3084 3084 3083 3082 3081 3080 3079 3078 3078 3077 3077 3076 3075 3074 3073 3072 3070 3069 3068 3066 3065 3065 3064 3065 3063 3059 3060 3065 3069 3071 3075 3078 3080 3082 3085 3087 3089 3092 3094 3096 3099 3102 3105
3061 3062 3063 3064 3065 3067 3068 3071 3074 3075 3076 3077 3077 3077 3078 3078 3079 3080 3080 3080 3081 3081 3081 3080 3080 3080 3081 3081 3081 3081 3082 3082 3082 3082 3083 3083 3084 3084 3084 3084 3083 3083 3083 3083 3083 3082 3082 3081 3080 3079 3079 3078 3078 3077 3076 3075 3074 3073 3071 3070 3069 3068 3066 3065 3064 3064 3065 3064 3058 3057 3063 3068 3070 3073 3076 3078 3080 3082 3084 3086 3088 3091 3094 3097 3099 3101
3061 3062 3063 3064 3065 3066 3067 3070 3073 3074 3075 3076 3076 3076 3077 3077 3078 3079 3079 3080 3080 3080 3080 3079 3079 3080 3080 3081 3081 3081 3081 3081 3081 3082 3083 3084 3084 3084 3084 3084 3083 3083 3083 3083 3082 3082 3082 3081 3080 3080 3079 3079 3079 3078 3077 3076 3075 3073 3071 3070 3069 3068 3067 3066 3065 3063 3064 3064 3061 3060 3062 3066 3069 3071 3072 3074 3077 3079 3081 3083 3086 3088 3091 3094 3096 3097
3059 3061 3062 3063 3064 3065 3066 3069 3071 3073 3074 3075 3075 3076 3076 3076 3077 3078 3079 3079 3079 3078 3078 3078 3078 3079 3079 3080 3080 3080 3080 3081 3081 3081 3082 3083 3083 3083 3083 3083 3083 3083 3083 3083 3082 3082 3082 3082 3081 3080 3080 3079 3079 3078 3077 3076 3075 3074 3072 3070 3069 3068 3067 3066 3065 3064 3064 3064 3064 3063 3064 3066 3069 3070 3069 3070 3074 3076 3078 3080 3083 3086 3089 3092 3093 3094
3059 3060 3061 3062 3064 3064 3065 3067 3071 3073 3073 3074 3075 3076 3076 3076 3077 3078 3078 3078 3078 3077 3077 3076 3077 3078 3079 3080 3080 3080 3080 3081 3081 3081 3081 3082 3082 3082 3083 3083 3082 3082 3082 3082 3082 3082 3082 3082 3081 3081 3080 3080 3079 3079 3078 3077 3075 3074 3073 3071 3070 3069 3068 3066 3065 3065 3065 3065 3065 3066 3067 3067 3068 3068 3067 3068 3073 3075 3076 3079 3081 3084 3086 3088 3088 3090
3058 3060 3061 3062 3063 3064 3064 3067 3070 3072 3073 3074 3075 3075 3076 3076 3077 3077 3077 3077 3077 3076 3076 3076 3076 3078 3079 3079 3080 3080 3080 3081 3081 3082 3082 3082 3082 3082 3083 3083 3082 3082 3081 3081 3081 3081 3081 3081 3081 3081 3080 3080 3079 3079 3078 3077 3076 3074 3073 3073 3071 3070 3069 3068 3067 3067 3067 3067 3067 3067 3068 3068 3068 3069 3069 3070 3073 3075 3077 3079 3080 3082 3083 3084 3085 3087
3058 3060 3061 3062 3063 3064 3065 3067 3070 3072 3073 3073 3074 3075 3076 3077 3077 3076 3077 3076 3076 3076 3076 3076 3076 3077 3078 3079 3080 3080 3080 3081 3081 3082 3083 3083 3083 3083 3083 3083 3083 3082 3082 3081 3080 3080 3080 3080 3080 3080 3080 3079 3079 3079 3079 3078 3077 3076 3074 3074 3073 3072 3071 3071 3070 3070 3069 3069 3069 3068 3068 3068 3069 3069 3071 3072 3074 3075 3076 3078 3079 3080 3081 3083 3084 3086
3059 3059 3060 3062 3063 3064 3065 3068 3070 3072 3072 3072 3074 3075 3076 3076 3076 3076 3076 3076 3076 3076 3076 3076 3077 3077 3078 3079 3080 3080 3081 3081 3082 3083 3083 3083 3083 3083 3083 3083 3083 3083 3082 3082 3081 3080 3080 3080 3080 3080 3079 3079 3079 3078 3078 3078 3078 3077 3076 3075 3074 3073 3073 3072 3072 3072 3071 3071 3071 3070 3070 3069 3070 3070 3071 3072 3074 3075 3076 3077 3078 3079 3080 3081 3083 3084
3060 3060 3060 3061 3063 3065 3066 3068 3070 3072 3072 3073 3074 3075 3076 3076 3076 3076 3077 3077 3076 3076 3077 3078 3078 3078 3079 3079 3080 3081 3082 3082 3083 3084 3084 3084 3084 3083 3083 3083 3083 3083 3082 3082 3081 3081 3080 3079 3079 3079 3079 3079 3079 3078 3078 3078 3077 3077 3077 3076 3076 3075 3074 3074 3073 3073 3073 3073 3073 3072 3072 3071 3071 3072 3072 3073 3073 3074 3076 3077 3078 3079 3080 3081 3082 3083
3061 3061 3061 3062 3064 3065 3068 3070 3072 3072 3073 3074 3075 3075 3076 3076 3076 3077 3077 3077 3077 3077 3078 3078 3078 3079 3080 3081 3082 3082 3083 3083 3084 3084 3085 3085 3084 3084 3084 3083 3083 3083 3082 3082 3081 3081 3080 3079 3079 3079 3079 3078 3078 3078 3078 3077 3077 3077 3076 3076 3076 3076 3075 3075 3075 3074 3074 3074 3073 3073 3073 3073 3073 3073 3074 3074 3074 3075 3076 3077 3078 3079 3080 3081 3082 3083
3064 3063 3062 3063 3065 3066 3069 3072 3074 3074 3074 3075 3076 3076 3077 3077 3077 3078 3078 3077 3077 3078 3078 3079 3080 3081 3082 3082 3083 3084 3084 3085 3085 3085 3085 3085 3085 3085 3084 3084 3084 3083 3083 3083 3082 3081 3080 3080 3079 3079 3078 3078 3078 3078 3078 3077 3077 3077 3076 3076 3076 3076 3075 3075 3075 3075 3074 3074 3074 3074 3074 3075 3075 3075 3075 3075 3075 3076 3077 3077 3078 3079 3080 3081 3082 3083
3065 3065 3064 3065 3066 3067 3070 3073 3074 3074 3075 3077 3077 3078 3078 3078 3078 3078 3078 3078 3078 3079 3079 3080 3082 3083 3083 3084 3084 3085 3085 3085 3085 3085 3085 3085 3085 3085 3084 3084 3084 3084 3083 3083 3082 3081 3081 3080 3079 3079 3078 3078 3078 3078 3078 3078 3077 3077 3076 3076 3076 3076 3076 3075 3075 3075 3075 3075 3075 3075 3075 3075 3076 3076 3076 3076 3076 3077 3077 3078 3079 3079 3080 3081 3081 3082
3066 3066 3067 3068 3068 3070 3072 3074 3075 3075 3076 3077 3078 3079 3079 3079 3079 3079 3079 3079 3080 3081 3081 3082 3083 3084 3084 3085 3085 3085 3086 3086 3085 3085 3085 3085 3084 3084 3083 3083 3083 3083 3083 3082 3081 3081 3081 3080 3079 3079 3078 3078 3078 3078 3078 3077 3077 3077 3077 3077 3077 3076 3076 3076 3076 3075 3075 3075 3075 3075 3075 3075 3076 3076 3076 3076 3076 3077 3077 3078 3079 3079 3080 3081 3081 3082
3068 3068 3069 3069 3069 3072 3074 3075 3076 3076 3076 3077 3079 3079 3079 3080 3080 3080 3081 3081 3082 3082 3083 3083 3084 3084 3085 3085 3085 3086 3086 3086 3086 3085 3085 3084 3084 3084 3083 3083 3082 3082 3082 3082 3081 3080 3080 3079 3079 3078 3078 3078 3078 3077 3077 3077 3077 3076 3076 3077 3077 3076 3076 3076 3075 3075 3074 3074 3074 3075 3075 3075 3075 3075 3075 3076 3076 3076 3077 3077 3078 3079 3080 3080 3081 3081
3070 3071 3072 3071 3071 3073 3076 3077 3077 3077 3077 3077 3079 3079 3080 3081 3081 3082 3082 3083 3083 3083 3084 3084 3085 3085 3085 3085 3085 3085 3086 3086 3086 3085 3085 3085 3084 3084 3083 3082 3082 3082 3082 3082 3081 3081 3080 3079 3079 3078 3077 3077 3077 3076 3075 3075 3075 3075 3075 3075 3076 3076 3076 3075 3074 3074 3073 3073 3073 3074 3074 3074 3074 3074 3075 3075 3076 3076 3076 3077 3078 3078 3079 3079 3080 3080